Flag for Germany Weather past 2 weeks in Schwerin, Mecklenburg-Western Pomerania, Germany

Now
64 °F

Overcast.


Feels Like: 64 °F
Forecast: 59 / 83 °F
Wind: 3 mph from Northeast

Location: Schwerin

Current Time: Jul 25, 2014 at 3:33:56 AM

Latest Report: Jul 25, 2014 at 3:00 AM


Visibility: 11 mi

Pressure: 30.03 "Hg

Humidity: 88%

Dew point: 60 °F

Location of SchwerinLocation

Historic Weather in Schwerin — Graph

°F

Schwerin temperature yesterday

Maximum temperature yesterday: 80 °F (at 3:00 PM)
Minimum temperature yesterday: 62 °F (at 4:00 AM)
Average temperature yesterday: 70 °F

Past Weeks' High & Low Weather Summary

 TemperatureHumidityPressure
High87 °F (Jul 19, 5:00 PM)99% (Jul 15, 6:00 AM)30.20 "Hg (Jul 15, 6:00 AM)
Low57 °F (Jul 12, 3:00 AM)32% (Jul 19, 4:00 PM)29.72 "Hg (Jul 14, 9:00 AM)
Average71 °F66%30.00 "Hg
* Reported Jul 10 2:00 AM — Jul 25 2:00 AM, Schwerin, Weather by CustomWeather, © 2014

Note: Actual official high and low records may vary slightly from our data, if they occured in-between our weather recording intervals... More about our weather records

Advertising

Schwerin weather history for previous 24 hours

 ConditionsComfort  
Time TempWeatherWind HumidityBarometerVisibility
2:00 AM
Jul 25
64 °FLight rain. Overcast.1 mph92%30.05 "Hg7 mi
1:00 AM65 °FLight rain. Overcast.2 mph83%30.07 "Hg9 mi
12:00 AM67 °FLight rain. Overcast.1 mph76%30.07 "Hg19 mi
10:00 PM
Jul 24
68 °FOvercast.2 mph72%30.06 "Hg19 mi
9:00 PM71 °FOvercast.3 mph63%30.06 "Hg19 mi
8:00 PM75 °FOvercast.5 mph38%30.04 "Hg22 mi
7:00 PM76 °FOvercast.5 mph38%30.03 "Hg19 mi
6:00 PM77 °FOvercast.5 mph39%30.03 "Hg19 mi
4:00 PM78 °FOvercast.6 mph42%30.04 "Hg19 mi
3:00 PM80 °FOvercast.6 mph39%30.04 "Hg19 mi
2:00 PM79 °FPartly sunny.6 mph46%30.06 "Hg16 mi
1:00 PM77 °FScattered clouds.5 mph44%30.06 "Hg19 mi
12:00 PM77 °FScattered clouds.5 mph51%30.07 "Hg13 mi
10:00 AM69 °FOvercast.2 mph76%30.08 "Hg14 mi
9:00 AM68 °FPartly sunny.3 mph80%30.09 "Hg13 mi
8:00 AM66 °FPartly sunny.3 mph85%30.09 "Hg12 mi
7:00 AM64 °FOvercast.3 mph87%30.08 "Hg10 mi
6:00 AM62 °FOvercast.3 mph89%30.09 "Hg9 mi
5:00 AM62 °FPassing clouds.3 mph88%30.09 "Hg12 mi
4:00 AM62 °FPassing clouds.3 mph86%30.09 "Hg13 mi
3:00 AM63 °FOvercast.3 mph83%30.09 "Hg19 mi
Weather by CustomWeather, © 2014

See weather overviewHow to use our weather pages